FW4685 Weather Reports


time (UTC)temp
C
wind
direction
speed
KPH
gust
KPH
rain 1hr
cm
rain 24hr
cm
rain mn
cm
humidity
%
barometer
mb
20260506072022 9 30 4.8 11.3 0.00 0.00 0.00 75 1015.2
20260506071025 9 27 3.2 8.0 0.00 0.00 0.00 76 1015.2
20260506062054 8 21 4.8 16.1 0.00 0.00 0.00 76 1015.0
20260506061020 8 14 1.6 11.3 0.00 0.00 0.00 77 1014.9
20260506051031 8 24 4.8 16.1 0.00 0.00 0.00 80 1014.5
20260506045030 8 34 3.2 11.3 0.00 0.00 0.00 80 1014.6
20260506044030 8 18 3.2 16.1 0.00 0.00 0.00 80 1014.5
20260506043033 8 359 3.2 11.3 0.00 0.00 0.00 80 1014.6
20260506042019 8 31 3.2 11.3 0.00 0.00 0.00 80 1014.4
20260506041024 8 21 3.2 11.3 0.00 0.00 0.00 80 1014.5
20260506040027 8 22 3.2 11.3 0.00 0.00 0.00 80 1014.5
20260506035026 8 20 1.6 8.0 0.00 0.00 0.00 80 1014.4
20260506034049 9 13 3.2 11.3 0.00 0.00 0.00 80 1014.4
20260506033029 9 27 4.8 19.3 0.00 0.00 0.00 80 1014.4
20260506032050 9 26 3.2 11.3 0.00 0.00 0.00 80 1014.5
20260506031030 9 16 3.2 16.1 0.00 0.00 0.00 79 1014.4
20260506030032 9 15 1.6 11.3 0.00 0.00 0.00 79 1014.4
20260506025028 10 27 1.6 11.3 0.00 0.00 0.00 79 1014.5
20260506024030 10 11 1.6 19.3 0.00 0.00 0.00 79 1014.4
20260506023051 10 19 3.2 19.3 0.00 0.00 0.00 79 1014.6
20260506022033 10 35 3.2 16.1 0.00 0.00 0.00 81 1014.5
20260506021020 10 27 3.2 16.1 0.00 0.00 0.00 80 1014.6
20260506020020 10 10 1.6 19.3 0.00 0.00 0.00 80 1014.6
20260506015022 10 24 3.2 16.1 0.00 0.00 0.00 80 1014.5
20260506014024 10 33 4.8 16.1 0.00 0.00 0.00 80 1014.6
20260506013026 10 21 3.2 11.3 0.00 0.00 0.00 79 1014.6
20260506012027 10 15 3.2 11.3 0.00 0.00 0.00 79 1014.8
20260506011030 10 25 4.8 16.1 0.00 0.00 0.00 78 1014.8
20260506010032 10 32 3.2 16.1 0.00 0.00 0.00 77 1014.7
20260506005059 10 21 3.2 19.3 0.00 0.00 0.00 76 1014.9
20260506004024 10 28 3.2 16.1 0.00 0.00 0.00 75 1014.7
20260506003026 11 28 3.2 16.1 0.00 0.00 0.00 75 1014.9
20260506002027 11 23 6.4 19.3 0.00 0.00 0.00 75 1014.8
20260506001047 11 44 3.2 11.3 0.00 0.00 0.00 75 1014.9
20260506000030 11 35 3.2 16.1 0.00 0.00 0.00 75 1014.8
20260505235031 11 27 1.6 8.0 0.00 0.00 0.00 75 1014.8
20260505234039 11 18 1.6 8.0 0.00 0.00 0.00 74 1014.8
20260505233022 11 26 4.8 19.3 0.00 0.00 0.00 74 1014.7
20260505232023 11 15 4.8 16.1 0.00 0.00 0.00 73 1014.8
20260505231045 11 33 3.2 16.1 0.00 0.00 0.00 74 1014.7
20260505230050 11 24 3.2 16.1 0.00 0.00 0.00 77 1014.8
20260505225033 12 16 1.6 11.3 0.00 0.00 0.00 77 1014.7
20260505224019 12 35 1.6 8.0 0.00 0.00 0.00 76 1014.7
20260505223023 12 73 0.0 8.0 0.00 0.00 0.00 76 1014.6
20260505222046 12 19 1.6 11.3 0.00 0.00 0.00 76 1014.6
20260505221027 12 13 1.6 19.3 0.00 0.00 0.00 76 1014.6
20260505220029 12 36 3.2 19.3 0.00 0.00 0.00 74 1014.6
20260505215032 12 79 0.0 3.2 0.00 0.00 0.00 73 1014.5
20260505214052 12 83 1.6 8.0 0.00 0.00 0.00 73 1014.5
20260505213112 13 46 0.0 3.2 0.00 0.00 0.00 72 1014.3
20260505212020 13 84 3.2 11.3 0.00 0.00 0.00 72 1014.3
20260505211039 13 20 0.0 8.0 0.00 0.00 0.00 71 1014.1
20260505210019 13 26 3.2 11.3 0.00 0.00 0.00 71 1014.1
20260505205040 13 7 3.2 11.3 0.00 0.00 0.00 70 1014.1
20260505204020 13 22 3.2 19.3 0.00 0.00 0.00 70 1014.0
20260505203022 13 29 8.0 24.1 0.00 0.00 0.00 69 1014.0
20260505202021 13 15 3.2 11.3 0.00 0.00 0.00 69 1013.9
20260505201024 13 39 8.0 19.3 0.00 0.00 0.00 69 1013.9
20260505200026 14 2 4.8 11.3 0.00 0.00 0.00 69 1013.8
20260505195050 14 18 4.8 16.1 0.00 0.00 0.00 69 1013.6
20260505194032 14 18 3.2 8.0 0.00 0.00 0.00 69 1013.5
20260505193019 15 20 4.8 19.3 0.00 0.00 0.00 67 1013.4
20260505192024 15 23 3.2 11.3 0.00 0.00 0.00 63 1013.3
20260505191024 15 25 1.6 8.0 0.00 0.00 0.00 63 1013.3
20260505190027 15 22 3.2 16.1 0.00 0.00 0.00 63 1013.0
20260505185029 15 27 1.6 11.3 0.00 0.00 0.00 63 1013.1
20260505184032 15 25 1.6 11.3 0.00 0.00 0.00 64 1013.1
20260505183031 15 26 3.2 16.1 0.00 0.00 0.00 65 1012.9
20260505182032 15 31 3.2 16.1 0.00 0.00 0.00 65 1013.0
20260505181020 15 7 1.6 11.3 0.00 0.00 0.00 66 1012.9
20260505180023 15 357 1.6 11.3 0.00 0.00 0.00 66 1013.1
20260505175024 15 6 1.6 8.0 0.00 0.00 0.00 65 1012.9
20260505174044 15 15 1.6 11.3 0.00 0.00 0.00 66 1012.8
20260505173024 15 336 0.0 8.0 0.00 0.00 0.00 65 1012.9
20260505172027 15 22 1.6 11.3 0.00 0.00 0.00 66 1013.1
20260505171048 15 16 0.0 8.0 0.00 0.00 0.00 65 1013.1
20260505170027 15 36 0.0 8.0 0.00 0.00 0.00 65 1013.1
20260505165027 15 13 1.6 8.0 0.00 0.00 0.00 63 1013.0
20260505164027 16 26 1.6 11.3 0.00 0.00 0.00 64 1013.1
20260505163027 16 13 1.6 8.0 0.00 0.00 0.00 63 1013.1
20260505162026 16 16 1.6 8.0 0.00 0.00 0.00 62 1013.2
20260505161048 16 17 1.6 11.3 0.00 0.00 0.00 61 1013.1
20260505153032 16 346 1.6 11.3 0.00 0.00 0.00 59 1013.2
20260505152019 16 6 0.0 8.0 0.00 0.00 0.00 61 1013.2
20260505151039 16 41 0.0 8.0 0.00 0.00 0.00 60 1013.4
20260505125028 16 16 4.8 11.3 0.00 0.00 0.00 61 1013.9
20260505124028 16 23 1.6 11.3 0.00 0.00 0.00 60 1013.9
20260505123038 16 26 1.6 11.3 0.00 0.00 0.00 60 1013.9
20260505122022 16 14 1.6 16.1 0.00 0.00 0.00 59 1013.9
20260505121024 16 30 3.2 11.3 0.00 0.00 0.00 59 1014.1
20260505120027 16 54 0.0 3.2 0.00 0.00 0.00 63 1014.0
20260505115049 16 17 1.6 8.0 0.00 0.00 0.00 62 1014.0
20260505114032 15 24 1.6 8.0 0.00 0.00 0.00 63 1014.1
20260505113019 15 21 1.6 11.3 0.00 0.00 0.00 64 1014.2
20260505112040 15 17 1.6 16.1 0.00 0.00 0.00 64 1014.2
20260505111019 15 337 1.6 16.1 0.00 0.00 0.00 65 1014.3
20260505102026 13 24 1.6 11.3 0.00 0.00 0.00 74 1014.7
20260505101028 12 23 1.6 8.0 0.00 0.00 0.00 75 1014.8
20260505100027 12 29 1.6 11.3 0.00 0.00 0.00 76 1014.9
20260505095051 12 9 3.2 19.3 0.00 0.00 0.00 79 1014.9
20260505094019 12 25 3.2 19.3 0.00 0.00 0.00 80 1014.9
20260505093023 12 26 1.6 11.3 0.00 0.00 0.00 80 1015.0
20260505092043 12 26 4.8 11.3 0.00 0.00 0.00 80 1015.0
20260505091024 12 14 3.2 11.3 0.00 0.00 0.00 80 1015.0
20260505090024 12 28 1.6 16.1 0.00 0.00 0.00 80 1015.0
20260505085029 12 35 1.6 11.3 0.00 0.00 0.00 80 1015.1
20260505084052 12 14 1.6 11.3 0.00 0.00 0.00 80 1015.0
20260505083018 12 20 3.2 16.1 0.00 0.00 0.00 80 1015.2
20260505082038 12 28 1.6 11.3 0.00 0.00 0.00 82 1015.1
20260505081020 12 353 0.0 8.0 0.00 0.00 0.00 84 1015.0
20260505080019 11 3 1.6 11.3 0.00 0.00 0.00 84 1015.1
20260505075021 11 356 0.0 3.2 0.00 0.00 0.00 84 1015.0
20260505074023 11 8 3.2 11.3 0.00 0.00 0.00 84 1015.1